TimeEDT,TemperatureF,Dew PointF,Humidity,Sea Level PressureIn,VisibilityMPH,Wind Direction,Wind SpeedMPH,Gust SpeedMPH,PrecipitationIn,Events,Conditions,WindDirDegrees,DateUTC
12:53 AM,55.9,46.9,72,30.23,10.0,NNE,4.6,-,N/A,,Partly Cloudy,30,2013-10-10 04:53:00
1:53 AM,55.0,46.9,74,30.23,10.0,NNE,6.9,-,N/A,,Scattered Clouds,30,2013-10-10 05:53:00
2:53 AM,55.0,48.0,77,30.21,10.0,NNE,6.9,-,N/A,,Mostly Cloudy,20,2013-10-10 06:53:00
3:08 AM,55.4,48.2,77,30.22,10.0,NNE,9.2,-,N/A,,Scattered Clouds,30,2013-10-10 07:08:00
3:53 AM,55.0,46.9,74,30.20,10.0,NNE,9.2,-,N/A,,Scattered Clouds,30,2013-10-10 07:53:00
4:14 AM,55.4,46.4,72,30.22,10.0,NE,9.2,-,N/A,,Mostly Cloudy,40,2013-10-10 08:14:00
4:53 AM,54.0,46.9,77,30.20,10.0,NNE,10.4,-,0.00,Rain,Light Rain,30,2013-10-10 08:53:00
5:28 AM,53.6,46.4,77,30.21,10.0,NNE,10.4,19.6,0.00,Rain,Light Rain,30,2013-10-10 09:28:00
5:53 AM,53.1,46.9,80,30.19,10.0,NE,11.5,18.4,0.01,Rain,Light Rain,40,2013-10-10 09:53:00
6:53 AM,52.0,46.9,83,30.18,10.0,NE,11.5,18.4,0.02,Rain,Light Rain,40,2013-10-10 10:53:00
7:53 AM,52.0,48.0,86,30.17,8.0,NE,12.7,19.6,0.02,Rain,Light Rain,40,2013-10-10 11:53:00
8:43 AM,51.8,48.2,88,30.20,10.0,NE,8.1,17.3,0.01,Rain,Light Rain,50,2013-10-10 12:43:00
8:53 AM,52.0,48.9,89,30.18,10.0,NE,10.4,-,0.01,Rain,Light Rain,40,2013-10-10 12:53:00
9:11 AM,53.6,48.2,82,30.20,10.0,NE,10.4,17.3,0.01,Rain,Light Rain,40,2013-10-10 13:11:00
9:53 AM,53.1,50.0,89,30.18,8.0,NNE,11.5,18.4,0.01,Rain,Light Rain,30,2013-10-10 13:53:00
10:19 AM,53.6,50.0,88,30.18,9.0,NNE,9.2,17.3,0.01,Rain,Light Rain,30,2013-10-10 14:19:00
10:46 AM,53.6,51.8,94,30.18,10.0,NE,10.4,17.3,0.01,,Overcast,40,2013-10-10 14:46:00
10:53 AM,54.0,51.1,90,30.16,10.0,NE,11.5,18.4,0.01,,Overcast,40,2013-10-10 14:53:00
11:53 AM,55.9,52.0,87,30.14,6.0,NE,13.8,20.7,0.01,Rain,Light Rain,40,2013-10-10 15:53:00
12:53 PM,55.9,53.1,90,30.13,10.0,NE,12.7,19.6,0.01,Rain,Light Rain,40,2013-10-10 16:53:00
1:53 PM,57.0,53.1,87,30.11,10.0,NNE,13.8,19.6,0.00,Rain,Light Rain,30,2013-10-10 17:53:00
2:43 PM,57.2,53.6,88,30.11,7.0,NE,13.8,-,0.01,Rain,Light Rain,40,2013-10-10 18:43:00
2:53 PM,57.0,53.1,87,30.09,9.0,NE,11.5,18.4,0.01,Rain,Light Rain,40,2013-10-10 18:53:00
3:20 PM,57.2,53.6,88,30.10,10.0,NE,11.5,20.7,0.00,,Overcast,50,2013-10-10 19:20:00
3:53 PM,59.0,54.0,83,30.07,10.0,NE,13.8,21.9,0.00,,Overcast,50,2013-10-10 19:53:00
4:53 PM,59.0,54.0,83,30.06,2.5,NE,12.7,24.2,0.03,Rain,Rain,40,2013-10-10 20:53:00
5:03 PM,57.2,53.6,88,30.07,1.8,NE,15.0,23.0,0.05,Rain,Heavy Rain,40,2013-10-10 21:03:00
5:10 PM,57.2,53.6,88,30.07,3.0,NE,11.5,21.9,0.06,Rain,Light Rain,50,2013-10-10 21:10:00
5:40 PM,57.2,55.4,94,30.07,4.0,NE,11.5,21.9,0.10,Rain,Light Rain,40,2013-10-10 21:40:00
5:53 PM,59.0,55.0,87,30.05,10.0,NE,10.4,19.6,0.10,,Overcast,40,2013-10-10 21:53:00
6:16 PM,59.0,55.4,88,30.07,8.0,NE,10.4,21.9,0.00,Rain,Light Rain,40,2013-10-10 22:16:00
6:53 PM,59.0,55.0,87,30.06,10.0,NE,8.1,20.7,0.00,,Overcast,50,2013-10-10 22:53:00
7:53 PM,60.1,55.0,83,30.04,10.0,NE,17.3,23.0,N/A,,Overcast,40,2013-10-10 23:53:00
8:53 PM,60.1,54.0,80,30.03,10.0,NE,16.1,23.0,N/A,,Overcast,50,2013-10-11 00:53:00
9:53 PM,60.1,54.0,80,30.04,10.0,NE,15.0,21.9,N/A,,Overcast,40,2013-10-11 01:53:00
10:53 PM,60.1,53.1,78,30.03,10.0,NE,18.4,24.2,N/A,,Overcast,50,2013-10-11 02:53:00
11:53 PM,60.1,53.1,78,30.01,10.0,NE,17.3,24.2,N/A,,Overcast,50,2013-10-11 03:53:00